Location: Hains Lake
(37.8540°N, 99.8578°W)
Time: 22:41:13
(UTC+00:00)

deb Explorer IX - Pass Details

Date: 22 April 2021
Orbit: 541 x 1098 km, 38.8° (Epoch: 13 May)

Event Time Altitude Azimuth Distance (km) Brightness Sun altitude
Rises 18:56:04 0° 273° (W) 3,141 ? 64.3°
Reaches altitude 10° 18:59:13 10° 252° (WSW) 2,330 ? 64.2°
Maximum altitude 19:02:34 16° 215° (SW) 2,029 ? 64.0°
Drops below altitude 10° 19:06:12 10° 178° (S) 2,564 ? 63.8°
Sets 19:09:58 0° 159° (SSE) 3,621 ? 63.6°
